LOCATION_NAME,SAMPLE COLLECTION TIME,DOSE EQUIVALENT RATE (nSv/h),GAMMA COUNT RATE R02 (CPM),GAMMA COUNT RATE R03 (CPM),GAMMA COUNT RATE R04 (CPM),GAMMA COUNT RATE R05 (CPM),GAMMA COUNT RATE R06 (CPM),GAMMA COUNT RATE R07 (CPM),GAMMA COUNT RATE R08 (CPM),GAMMA COUNT RATE R09 (CPM),STATUS
NY: ROCHESTER,01/01/2017 00:48:00,,3515.00,2117.00,553.00,252.00,159.00,180.00,101.00,47.00,APPROVED
NY: ROCHESTER,01/01/2017 01:48:00,,3494.00,2116.00,552.00,253.00,157.00,180.00,103.00,46.00,APPROVED
NY: ROCHESTER,01/01/2017 02:48:00,,3489.00,2103.00,553.00,257.00,157.00,180.00,103.00,45.00,APPROVED
NY: ROCHESTER,01/01/2017 03:49:00,,3519.00,2143.00,559.00,265.00,162.00,186.00,105.00,48.00,APPROVED
NY: ROCHESTER,01/01/2017 04:49:00,,3562.00,2197.00,576.00,272.00,164.00,189.00,104.00,45.00,APPROVED
NY: ROCHESTER,01/01/2017 05:49:00,,3693.00,2297.00,603.00,284.00,170.00,203.00,112.00,47.00,APPROVED
NY: ROCHESTER,01/01/2017 06:49:00,,3544.00,2175.00,578.00,273.00,164.00,187.00,106.00,46.00,APPROVED
NY: ROCHESTER,01/01/2017 08:50:00,,3471.00,2095.00,552.00,256.00,158.00,182.00,100.00,45.00,APPROVED
NY: ROCHESTER,01/01/2017 09:50:00,,3455.00,2079.00,550.00,249.00,154.00,181.00,101.00,45.00,APPROVED
NY: ROCHESTER,01/01/2017 10:50:00,,3465.00,2092.00,553.00,252.00,156.00,180.00,99.00,44.00,APPROVED
NY: ROCHESTER,01/01/2017 11:50:00,,3444.00,2086.00,546.00,250.00,155.00,182.00,99.00,44.00,APPROVED
NY: ROCHESTER,01/01/2017 12:51:00,,3435.00,2073.00,544.00,251.00,156.00,177.00,99.00,43.00,APPROVED
NY: ROCHESTER,01/01/2017 13:51:00,,3449.00,2060.00,548.00,250.00,152.00,177.00,99.00,43.00,APPROVED
NY: ROCHESTER,01/01/2017 14:51:00,,3419.00,2063.00,541.00,246.00,153.00,180.00,97.00,44.00,APPROVED
NY: ROCHESTER,01/01/2017 15:51:00,,3379.00,2039.00,545.00,246.00,153.00,177.00,94.00,43.00,APPROVED
NY: ROCHESTER,01/01/2017 16:52:00,,3357.00,2022.00,536.00,244.00,151.00,175.00,99.00,42.00,APPROVED
NY: ROCHESTER,01/01/2017 17:52:00,,3323.00,2015.00,540.00,243.00,155.00,175.00,98.00,45.00,APPROVED
NY: ROCHESTER,01/01/2017 18:52:00,,3306.00,2007.00,539.00,246.00,154.00,175.00,102.00,43.00,APPROVED
NY: ROCHESTER,01/01/2017 19:52:00,,3259.00,1979.00,532.00,246.00,154.00,175.00,104.00,43.00,APPROVED
NY: ROCHESTER,01/01/2017 20:53:00,,3223.00,1966.00,528.00,245.00,155.00,174.00,101.00,45.00,APPROVED
NY: ROCHESTER,01/01/2017 21:53:00,,3257.00,1982.00,529.00,245.00,154.00,179.00,102.00,45.00,APPROVED
NY: ROCHESTER,01/01/2017 22:53:00,,3388.00,2048.00,546.00,249.00,156.00,175.00,100.00,45.00,APPROVED
NY: ROCHESTER,01/01/2017 23:53:00,,3433.00,2075.00,548.00,252.00,156.00,179.00,102.00,45.00,APPROVED
NY: ROCHESTER,01/02/2017 00:53:00,,3438.00,2077.00,549.00,253.00,154.00,179.00,103.00,44.00,APPROVED
NY: ROCHESTER,01/02/2017 01:54:00,,3403.00,2066.00,544.00,251.00,159.00,181.00,101.00,46.00,APPROVED
NY: ROCHESTER,01/02/2017 02:54:00,,3441.00,2077.00,550.00,253.00,154.00,181.00,102.00,45.00,APPROVED
NY: ROCHESTER,01/02/2017 03:54:00,,3466.00,2095.00,550.00,256.00,156.00,178.00,102.00,45.00,APPROVED
NY: ROCHESTER,01/02/2017 04:54:00,,3494.00,2114.00,554.00,255.00,160.00,181.00,102.00,44.00,APPROVED
NY: ROCHESTER,01/02/2017 05:55:00,,3518.00,2125.00,561.00,257.00,158.00,182.00,102.00,46.00,APPROVED
NY: ROCHESTER,01/02/2017 06:55:00,,3488.00,2137.00,553.00,260.00,160.00,185.00,104.00,45.00,APPROVED
NY: ROCHESTER,01/02/2017 08:55:00,,3490.00,2139.00,557.00,260.00,160.00,182.00,105.00,46.00,APPROVED
NY: ROCHESTER,01/02/2017 09:55:00,,3517.00,2152.00,562.00,265.00,160.00,183.00,104.00,47.00,APPROVED
NY: ROCHESTER,01/02/2017 10:56:00,,3513.00,2157.00,566.00,263.00,161.00,187.00,104.00,46.00,APPROVED
NY: ROCHESTER,01/02/2017 11:56:00,,3562.00,2168.00,568.00,268.00,161.00,186.00,104.00,46.00,APPROVED
NY: ROCHESTER,01/02/2017 12:56:00,,3570.00,2185.00,573.00,268.00,162.00,185.00,103.00,46.00,APPROVED
NY: ROCHESTER,01/02/2017 13:56:00,,3578.00,2195.00,571.00,270.00,160.00,191.00,105.00,46.00,APPROVED
NY: ROCHESTER,01/02/2017 14:57:00,,3566.00,2174.00,571.00,271.00,163.00,186.00,104.00,46.00,APPROVED
NY: ROCHESTER,01/02/2017 15:57:00,,3539.00,2180.00,567.00,271.00,163.00,188.00,106.00,46.00,APPROVED
NY: ROCHESTER,01/02/2017 16:57:00,,3541.00,2170.00,571.00,272.00,160.00,186.00,107.00,46.00,APPROVED
NY: ROCHESTER,01/02/2017 17:57:00,,3500.00,2154.00,570.00,268.00,162.00,184.00,109.00,45.00,APPROVED
NY: ROCHESTER,01/02/2017 18:58:00,,3468.00,2134.00,558.00,267.00,163.00,185.00,107.00,44.00,APPROVED
NY: ROCHESTER,01/02/2017 19:58:00,,3435.00,2112.00,560.00,262.00,163.00,182.00,106.00,46.00,APPROVED
NY: ROCHESTER,01/02/2017 21:58:00,,3432.00,2131.00,565.00,271.00,160.00,189.00,112.00,47.00,APPROVED
NY: ROCHESTER,01/02/2017 22:58:00,,3459.00,2137.00,571.00,276.00,164.00,187.00,111.00,47.00,APPROVED
NY: ROCHESTER,01/02/2017 23:59:00,,3453.00,2104.00,559.00,266.00,161.00,183.00,109.00,45.00,APPROVED
NY: ROCHESTER,01/03/2017 00:59:00,,3410.00,2090.00,561.00,264.00,159.00,185.00,109.00,47.00,APPROVED
NY: ROCHESTER,01/03/2017 01:59:00,,3410.00,2085.00,554.00,258.00,159.00,181.00,104.00,46.00,APPROVED
NY: ROCHESTER,01/03/2017 02:59:00,,3403.00,2071.00,554.00,259.00,160.00,183.00,104.00,46.00,APPROVED
NY: ROCHESTER,01/03/2017 04:00:00,,3432.00,2098.00,548.00,259.00,156.00,182.00,105.00,47.00,APPROVED
NY: ROCHESTER,01/03/2017 05:00:00,,3412.00,2095.00,550.00,259.00,158.00,180.00,107.00,46.00,APPROVED
NY: ROCHESTER,01/03/2017 06:00:00,,3401.00,2068.00,543.00,257.00,157.00,181.00,105.00,47.00,APPROVED
NY: ROCHESTER,01/03/2017 07:00:00,,3415.00,2088.00,544.00,257.00,155.00,178.00,105.00,46.00,APPROVED
NY: ROCHESTER,01/03/2017 08:00:00,,3418.00,2089.00,542.00,258.00,158.00,179.00,105.00,45.00,APPROVED
NY: ROCHESTER,01/03/2017 09:01:00,,3457.00,2098.00,554.00,255.00,155.00,179.00,105.00,45.00,APPROVED
NY: ROCHESTER,01/03/2017 10:01:00,,3460.00,2099.00,550.00,257.00,156.00,181.00,104.00,45.00,APPROVED
NY: ROCHESTER,01/03/2017 11:01:00,,3424.00,2076.00,545.00,255.00,153.00,178.00,104.00,46.00,APPROVED
NY: ROCHESTER,01/03/2017 12:01:00,,3401.00,2066.00,548.00,255.00,155.00,180.00,103.00,46.00,APPROVED
NY: ROCHESTER,01/03/2017 13:02:00,,3370.00,2065.00,547.00,254.00,156.00,181.00,106.00,45.00,APPROVED
NY: ROCHESTER,01/03/2017 13:54:00,,3376.00,2065.00,552.00,265.00,157.00,180.00,106.00,46.00,APPROVED
NY: ROCHESTER,01/03/2017 15:01:00,,3369.00,2029.00,540.00,246.00,156.00,175.00,102.00,44.00,APPROVED
NY: ROCHESTER,01/03/2017 16:01:00,,3362.00,2034.00,535.00,250.00,156.00,175.00,105.00,45.00,APPROVED
NY: ROCHESTER,01/03/2017 17:01:00,,3326.00,2027.00,536.00,252.00,156.00,177.00,104.00,46.00,APPROVED
NY: ROCHESTER,01/03/2017 18:01:00,,3368.00,2068.00,552.00,256.00,158.00,181.00,107.00,45.00,APPROVED
NY: ROCHESTER,01/03/2017 19:02:00,,3386.00,2110.00,562.00,266.00,162.00,187.00,110.00,45.00,APPROVED
NY: ROCHESTER,01/03/2017 20:02:00,,3415.00,2104.00,564.00,267.00,161.00,186.00,110.00,47.00,APPROVED
NY: ROCHESTER,01/03/2017 21:02:00,,3426.00,2113.00,559.00,269.00,163.00,190.00,107.00,47.00,APPROVED
NY: ROCHESTER,01/03/2017 23:03:00,,3505.00,2176.00,579.00,280.00,165.00,193.00,113.00,47.00,APPROVED
NY: ROCHESTER,01/04/2017 00:03:00,,3550.00,2236.00,591.00,287.00,166.00,198.00,115.00,49.00,APPROVED
NY: ROCHESTER,01/04/2017 01:03:00,,3552.00,2231.00,591.00,293.00,168.00,200.00,115.00,49.00,APPROVED
NY: ROCHESTER,01/04/2017 02:03:00,,3469.00,2171.00,579.00,276.00,166.00,192.00,114.00,48.00,APPROVED
NY: ROCHESTER,01/04/2017 03:04:00,,3402.00,2092.00,557.00,267.00,160.00,187.00,109.00,46.00,APPROVED
NY: ROCHESTER,01/04/2017 04:04:00,,3393.00,2083.00,555.00,264.00,160.00,185.00,106.00,44.00,APPROVED
NY: ROCHESTER,01/04/2017 05:04:00,,3556.00,2233.00,587.00,285.00,168.00,197.00,114.00,47.00,APPROVED
NY: ROCHESTER,01/04/2017 06:04:00,,3502.00,2198.00,589.00,289.00,169.00,197.00,113.00,48.00,APPROVED
NY: ROCHESTER,01/04/2017 07:04:00,,3468.00,2174.00,582.00,282.00,168.00,200.00,113.00,47.00,APPROVED
NY: ROCHESTER,01/04/2017 08:05:00,,3441.00,2157.00,576.00,286.00,167.00,200.00,113.00,49.00,APPROVED
NY: ROCHESTER,01/04/2017 09:05:00,,3435.00,2145.00,570.00,276.00,167.00,191.00,110.00,47.00,APPROVED
NY: ROCHESTER,01/04/2017 10:05:00,,3451.00,2132.00,567.00,270.00,161.00,189.00,107.00,46.00,APPROVED
NY: ROCHESTER,01/04/2017 11:05:00,,3444.00,2107.00,557.00,263.00,159.00,187.00,105.00,46.00,APPROVED
NY: ROCHESTER,01/04/2017 12:06:00,,3472.00,2129.00,554.00,263.00,160.00,185.00,105.00,46.00,APPROVED
NY: ROCHESTER,01/04/2017 14:06:00,,3505.00,2158.00,567.00,266.00,158.00,191.00,105.00,46.00,APPROVED
NY: ROCHESTER,01/04/2017 15:06:00,,3493.00,2140.00,563.00,269.00,161.00,188.00,105.00,46.00,APPROVED
NY: ROCHESTER,01/04/2017 16:06:00,,3507.00,2160.00,565.00,268.00,159.00,187.00,106.00,46.00,APPROVED
NY: ROCHESTER,01/04/2017 17:07:00,,3512.00,2138.00,561.00,261.00,159.00,187.00,106.00,47.00,APPROVED
NY: ROCHESTER,01/04/2017 18:07:00,,3487.00,2106.00,552.00,256.00,158.00,185.00,101.00,45.00,APPROVED
NY: ROCHESTER,01/04/2017 20:07:00,,3470.00,2098.00,555.00,254.00,155.00,179.00,100.00,46.00,APPROVED
NY: ROCHESTER,01/04/2017 21:08:00,,3500.00,2093.00,554.00,250.00,156.00,180.00,97.00,46.00,APPROVED
NY: ROCHESTER,01/04/2017 22:08:00,,3538.00,2113.00,557.00,251.00,159.00,183.00,95.00,45.00,APPROVED
NY: ROCHESTER,01/04/2017 23:08:00,,3560.00,2135.00,553.00,251.00,157.00,182.00,93.00,45.00,APPROVED
NY: ROCHESTER,01/05/2017 00:08:00,,3565.00,2126.00,552.00,249.00,155.00,181.00,92.00,45.00,APPROVED
NY: ROCHESTER,01/05/2017 01:09:00,,3547.00,2127.00,557.00,248.00,154.00,183.00,90.00,45.00,APPROVED
NY: ROCHESTER,01/05/2017 02:09:00,,3548.00,2106.00,549.00,245.00,153.00,179.00,90.00,43.00,APPROVED
NY: ROCHESTER,01/05/2017 03:09:00,,3561.00,2109.00,555.00,245.00,157.00,181.00,87.00,46.00,APPROVED
NY: ROCHESTER,01/05/2017 04:09:00,,3548.00,2106.00,551.00,243.00,153.00,183.00,87.00,44.00,APPROVED
NY: ROCHESTER,01/05/2017 05:09:00,,3534.00,2102.00,553.00,242.00,154.00,183.00,86.00,43.00,APPROVED
NY: ROCHESTER,01/05/2017 06:10:00,,3541.00,2109.00,551.00,241.00,154.00,179.00,86.00,43.00,APPROVED
NY: ROCHESTER,01/05/2017 07:10:00,,3536.00,2096.00,551.00,243.00,151.00,181.00,88.00,44.00,APPROVED
NY: ROCHESTER,01/05/2017 08:10:00,,3535.00,2097.00,552.00,242.00,152.00,180.00,86.00,43.00,APPROVED
NY: ROCHESTER,01/05/2017 09:10:00,,3537.00,2094.00,551.00,244.00,155.00,180.00,87.00,43.00,APPROVED
NY: ROCHESTER,01/05/2017 10:11:00,,3524.00,2102.00,547.00,247.00,154.00,180.00,87.00,44.00,APPROVED
NY: ROCHESTER,01/05/2017 11:11:00,,3532.00,2097.00,547.00,241.00,154.00,179.00,88.00,44.00,APPROVED
NY: ROCHESTER,01/05/2017 12:11:00,,3527.00,2097.00,550.00,243.00,151.00,178.00,88.00,44.00,APPROVED
NY: ROCHESTER,01/05/2017 13:11:00,,3516.00,2097.00,553.00,242.00,154.00,180.00,89.00,43.00,APPROVED
NY: ROCHESTER,01/05/2017 14:12:00,,3526.00,2094.00,551.00,244.00,153.00,180.00,89.00,44.00,APPROVED
NY: ROCHESTER,01/05/2017 15:12:00,,3510.00,2079.00,542.00,241.00,154.00,178.00,87.00,44.00,APPROVED
NY: ROCHESTER,01/05/2017 16:12:00,,3517.00,2081.00,548.00,246.00,154.00,179.00,88.00,45.00,APPROVED
NY: ROCHESTER,01/05/2017 17:12:00,,3499.00,2100.00,543.00,244.00,153.00,176.00,89.00,45.00,APPROVED
NY: ROCHESTER,01/05/2017 18:12:00,,3510.00,2090.00,544.00,243.00,152.00,183.00,91.00,44.00,APPROVED
NY: ROCHESTER,01/05/2017 19:13:00,,3524.00,2088.00,542.00,244.00,155.00,179.00,88.00,45.00,APPROVED
NY: ROCHESTER,01/05/2017 20:13:00,,3506.00,2095.00,546.00,247.00,157.00,181.00,92.00,45.00,APPROVED
NY: ROCHESTER,01/05/2017 21:13:00,,3501.00,2095.00,552.00,246.00,154.00,179.00,92.00,44.00,APPROVED
NY: ROCHESTER,01/05/2017 22:13:00,,3505.00,2092.00,550.00,248.00,156.00,180.00,94.00,45.00,APPROVED
NY: ROCHESTER,01/05/2017 23:14:00,,3515.00,2109.00,550.00,246.00,159.00,179.00,96.00,45.00,APPROVED
NY: ROCHESTER,01/06/2017 00:14:00,,3509.00,2099.00,555.00,246.00,157.00,181.00,95.00,44.00,APPROVED
NY: ROCHESTER,01/06/2017 01:14:00,,3527.00,2116.00,551.00,251.00,158.00,183.00,91.00,42.00,APPROVED
NY: ROCHESTER,01/06/2017 02:14:00,,3569.00,2139.00,560.00,245.00,158.00,182.00,95.00,45.00,APPROVED
NY: ROCHESTER,01/06/2017 03:14:00,,3536.00,2109.00,554.00,247.00,152.00,182.00,93.00,45.00,APPROVED
NY: ROCHESTER,01/06/2017 04:15:00,,3535.00,2107.00,548.00,247.00,154.00,181.00,93.00,46.00,APPROVED
NY: ROCHESTER,01/06/2017 05:15:00,,3536.00,2105.00,552.00,248.00,156.00,183.00,91.00,44.00,APPROVED
NY: ROCHESTER,01/06/2017 06:15:00,,3545.00,2116.00,557.00,244.00,155.00,181.00,90.00,45.00,APPROVED
NY: ROCHESTER,01/06/2017 07:15:00,,3543.00,2114.00,552.00,249.00,156.00,183.00,91.00,45.00,APPROVED
NY: ROCHESTER,01/06/2017 08:16:00,,3540.00,2095.00,553.00,243.00,153.00,183.00,88.00,44.00,APPROVED
NY: ROCHESTER,01/06/2017 09:16:00,,3539.00,2081.00,545.00,242.00,157.00,179.00,87.00,45.00,APPROVED
NY: ROCHESTER,01/06/2017 10:16:00,,3541.00,2100.00,553.00,242.00,153.00,182.00,82.00,44.00,APPROVED
NY: ROCHESTER,01/06/2017 11:16:00,,3558.00,2110.00,556.00,240.00,154.00,186.00,82.00,45.00,APPROVED
NY: ROCHESTER,01/06/2017 12:17:00,,3560.00,2102.00,553.00,245.00,152.00,186.00,81.00,45.00,APPROVED
NY: ROCHESTER,01/06/2017 13:17:00,,3560.00,2101.00,551.00,243.00,154.00,187.00,81.00,44.00,APPROVED
NY: ROCHESTER,01/06/2017 14:43:00,,3557.00,2097.00,548.00,238.00,153.00,183.00,83.00,43.00,APPROVED
NY: ROCHESTER,01/06/2017 15:44:00,,3543.00,2096.00,549.00,242.00,154.00,184.00,84.00,44.00,APPROVED
NY: ROCHESTER,01/06/2017 16:44:00,,3519.00,2090.00,544.00,239.00,152.00,184.00,84.00,45.00,APPROVED
NY: ROCHESTER,01/06/2017 17:44:00,,3493.00,2071.00,552.00,240.00,151.00,184.00,79.00,45.00,APPROVED
NY: ROCHESTER,01/06/2017 18:44:00,,3468.00,2056.00,540.00,234.00,153.00,185.00,76.00,43.00,APPROVED
NY: ROCHESTER,01/06/2017 19:45:00,,3484.00,2052.00,544.00,241.00,155.00,190.00,78.00,43.00,APPROVED
NY: ROCHESTER,01/06/2017 21:45:00,,3494.00,2061.00,544.00,238.00,153.00,187.00,74.00,45.00,APPROVED
NY: ROCHESTER,01/06/2017 22:45:00,,3493.00,2071.00,547.00,237.00,154.00,188.00,79.00,44.00,APPROVED
NY: ROCHESTER,01/06/2017 23:45:00,,3515.00,2086.00,547.00,243.00,155.00,187.00,81.00,43.00,APPROVED
NY: ROCHESTER,01/07/2017 00:46:00,,3522.00,2090.00,551.00,242.00,153.00,184.00,80.00,44.00,APPROVED
NY: ROCHESTER,01/07/2017 01:46:00,,3525.00,2076.00,547.00,237.00,154.00,186.00,81.00,45.00,APPROVED
NY: ROCHESTER,01/07/2017 02:46:00,,3521.00,2073.00,545.00,238.00,154.00,187.00,81.00,44.00,APPROVED
NY: ROCHESTER,01/07/2017 03:46:00,,3520.00,2080.00,544.00,241.00,152.00,182.00,86.00,43.00,APPROVED
NY: ROCHESTER,01/07/2017 04:47:00,,3543.00,2086.00,546.00,239.00,153.00,181.00,85.00,45.00,APPROVED
NY: ROCHESTER,01/07/2017 05:47:00,,3535.00,2092.00,544.00,238.00,152.00,181.00,83.00,44.00,APPROVED
NY: ROCHESTER,01/07/2017 06:47:00,,3552.00,2090.00,548.00,239.00,150.00,185.00,83.00,43.00,APPROVED
NY: ROCHESTER,01/07/2017 07:47:00,,3559.00,2097.00,544.00,239.00,154.00,184.00,85.00,45.00,APPROVED
NY: ROCHESTER,01/07/2017 08:47:00,,3544.00,2100.00,546.00,242.00,154.00,183.00,85.00,46.00,APPROVED
NY: ROCHESTER,01/07/2017 09:48:00,,3558.00,2097.00,547.00,242.00,153.00,189.00,82.00,44.00,APPROVED
NY: ROCHESTER,01/07/2017 10:48:00,,3564.00,2109.00,552.00,241.00,152.00,185.00,84.00,43.00,APPROVED
NY: ROCHESTER,01/07/2017 11:48:00,,3579.00,2114.00,556.00,247.00,155.00,189.00,82.00,44.00,APPROVED
NY: ROCHESTER,01/07/2017 12:48:00,,3571.00,2124.00,563.00,247.00,159.00,188.00,84.00,45.00,APPROVED
NY: ROCHESTER,01/07/2017 13:49:00,,3604.00,2137.00,564.00,246.00,158.00,191.00,83.00,44.00,APPROVED
NY: ROCHESTER,01/07/2017 14:49:00,,3605.00,2149.00,564.00,252.00,158.00,194.00,86.00,45.00,APPROVED
NY: ROCHESTER,01/07/2017 15:49:00,,3600.00,2151.00,562.00,253.00,158.00,190.00,89.00,46.00,APPROVED
NY: ROCHESTER,01/07/2017 16:49:00,,3570.00,2133.00,563.00,248.00,156.00,191.00,85.00,45.00,APPROVED
NY: ROCHESTER,01/07/2017 17:50:00,,3518.00,2081.00,550.00,242.00,151.00,187.00,78.00,44.00,APPROVED
NY: ROCHESTER,01/07/2017 18:50:00,,3479.00,2060.00,547.00,237.00,154.00,190.00,74.00,45.00,APPROVED
NY: ROCHESTER,01/07/2017 19:50:00,,3455.00,2058.00,544.00,242.00,153.00,184.00,83.00,44.00,APPROVED
NY: ROCHESTER,01/07/2017 20:50:00,,3476.00,2058.00,548.00,242.00,154.00,179.00,92.00,44.00,APPROVED
NY: ROCHESTER,01/07/2017 21:50:00,,3485.00,2071.00,540.00,244.00,154.00,179.00,91.00,43.00,APPROVED
NY: ROCHESTER,01/07/2017 22:51:00,,3495.00,2082.00,552.00,242.00,152.00,181.00,91.00,45.00,APPROVED
NY: ROCHESTER,01/07/2017 23:51:00,,3508.00,2094.00,552.00,242.00,152.00,181.00,89.00,45.00,APPROVED
NY: ROCHESTER,01/08/2017 00:51:00,,3515.00,2080.00,547.00,243.00,151.00,183.00,85.00,43.00,APPROVED
NY: ROCHESTER,01/08/2017 01:51:00,,3550.00,2106.00,552.00,243.00,151.00,182.00,86.00,42.00,APPROVED
NY: ROCHESTER,01/08/2017 02:52:00,,3551.00,2117.00,554.00,245.00,159.00,187.00,84.00,45.00,APPROVED
NY: ROCHESTER,01/08/2017 03:52:00,,3578.00,2112.00,561.00,244.00,155.00,186.00,86.00,44.00,APPROVED
NY: ROCHESTER,01/08/2017 04:52:00,,3570.00,2122.00,551.00,246.00,153.00,188.00,83.00,45.00,APPROVED
NY: ROCHESTER,01/08/2017 05:52:00,,3559.00,2117.00,554.00,244.00,156.00,187.00,83.00,43.00,APPROVED
NY: ROCHESTER,01/08/2017 06:52:00,,3547.00,2101.00,550.00,240.00,152.00,185.00,81.00,44.00,APPROVED
NY: ROCHESTER,01/08/2017 07:53:00,,3544.00,2106.00,546.00,243.00,156.00,185.00,82.00,44.00,APPROVED
NY: ROCHESTER,01/08/2017 08:53:00,,3541.00,2104.00,548.00,241.00,153.00,187.00,82.00,45.00,APPROVED
NY: ROCHESTER,01/08/2017 09:53:00,,3557.00,2098.00,552.00,243.00,153.00,187.00,83.00,45.00,APPROVED
NY: ROCHESTER,01/08/2017 10:53:00,,3564.00,2114.00,553.00,246.00,154.00,189.00,84.00,44.00,APPROVED
NY: ROCHESTER,01/08/2017 11:54:00,,3571.00,2124.00,559.00,246.00,158.00,188.00,85.00,45.00,APPROVED
NY: ROCHESTER,01/08/2017 12:54:00,,3631.00,2179.00,571.00,254.00,157.00,188.00,87.00,47.00,APPROVED
NY: ROCHESTER,01/08/2017 13:54:00,,3633.00,2184.00,572.00,254.00,157.00,190.00,88.00,45.00,APPROVED
NY: ROCHESTER,01/08/2017 14:54:00,,3650.00,2225.00,576.00,260.00,160.00,193.00,90.00,46.00,APPROVED
NY: ROCHESTER,01/08/2017 15:55:00,,3665.00,2241.00,585.00,263.00,162.00,195.00,92.00,46.00,APPROVED
NY: ROCHESTER,01/08/2017 16:55:00,,3703.00,2253.00,593.00,269.00,162.00,201.00,91.00,47.00,APPROVED
NY: ROCHESTER,01/08/2017 17:55:00,,3569.00,2133.00,560.00,252.00,156.00,191.00,86.00,44.00,APPROVED
NY: ROCHESTER,01/08/2017 18:55:00,,3550.00,2085.00,546.00,241.00,150.00,186.00,84.00,44.00,APPROVED
NY: ROCHESTER,01/08/2017 19:55:00,,3538.00,2099.00,543.00,240.00,153.00,182.00,84.00,45.00,APPROVED
NY: ROCHESTER,01/08/2017 20:56:00,,3540.00,2097.00,547.00,242.00,153.00,183.00,84.00,43.00,APPROVED
NY: ROCHESTER,01/08/2017 21:56:00,,3548.00,2115.00,554.00,241.00,154.00,186.00,86.00,45.00,APPROVED
NY: ROCHESTER,01/08/2017 22:56:00,,3536.00,2091.00,547.00,244.00,155.00,183.00,82.00,43.00,APPROVED
NY: ROCHESTER,01/08/2017 23:56:00,,3557.00,2092.00,546.00,246.00,154.00,182.00,83.00,44.00,APPROVED
NY: ROCHESTER,01/09/2017 00:57:00,,3537.00,2103.00,547.00,241.00,153.00,185.00,84.00,45.00,APPROVED
NY: ROCHESTER,01/09/2017 01:57:00,,3555.00,2097.00,549.00,244.00,157.00,185.00,85.00,43.00,APPROVED
NY: ROCHESTER,01/09/2017 02:57:00,,3538.00,2109.00,550.00,242.00,154.00,181.00,85.00,45.00,APPROVED
NY: ROCHESTER,01/09/2017 03:57:00,,3524.00,2081.00,545.00,240.00,153.00,183.00,84.00,45.00,APPROVED
NY: ROCHESTER,01/09/2017 04:58:00,,3538.00,2085.00,544.00,240.00,152.00,182.00,83.00,45.00,APPROVED
NY: ROCHESTER,01/09/2017 05:58:00,,3524.00,2077.00,542.00,241.00,154.00,179.00,84.00,44.00,APPROVED
NY: ROCHESTER,01/09/2017 06:58:00,,3519.00,2079.00,544.00,239.00,152.00,181.00,85.00,43.00,APPROVED
NY: ROCHESTER,01/09/2017 07:58:00,,3523.00,2099.00,544.00,241.00,153.00,183.00,83.00,44.00,APPROVED
NY: ROCHESTER,01/09/2017 08:58:00,,3521.00,2090.00,547.00,247.00,156.00,183.00,85.00,45.00,APPROVED
NY: ROCHESTER,01/09/2017 09:59:00,,3536.00,2099.00,551.00,238.00,154.00,184.00,83.00,42.00,APPROVED
NY: ROCHESTER,01/09/2017 10:59:00,,3542.00,2090.00,551.00,242.00,155.00,182.00,83.00,45.00,APPROVED
NY: ROCHESTER,01/09/2017 11:59:00,,3543.00,2096.00,550.00,240.00,149.00,186.00,84.00,42.00,APPROVED
NY: ROCHESTER,01/09/2017 12:59:00,,3541.00,2102.00,551.00,246.00,155.00,184.00,84.00,45.00,APPROVED
NY: ROCHESTER,01/09/2017 14:00:00,,3561.00,2109.00,552.00,242.00,154.00,185.00,84.00,44.00,APPROVED
NY: ROCHESTER,01/09/2017 15:00:00,,3546.00,2112.00,550.00,245.00,154.00,182.00,84.00,44.00,APPROVED
NY: ROCHESTER,01/09/2017 16:00:00,,3554.00,2112.00,554.00,245.00,152.00,187.00,84.00,43.00,APPROVED
NY: ROCHESTER,01/09/2017 17:00:00,,3561.00,2119.00,553.00,244.00,153.00,186.00,86.00,46.00,APPROVED
NY: ROCHESTER,01/09/2017 18:31:00,,3545.00,2105.00,549.00,243.00,152.00,181.00,84.00,44.00,APPROVED
NY: ROCHESTER,01/09/2017 19:31:00,,3548.00,2090.00,548.00,241.00,158.00,187.00,80.00,43.00,APPROVED
NY: ROCHESTER,01/09/2017 20:32:00,,3555.00,2077.00,549.00,240.00,152.00,189.00,75.00,44.00,APPROVED
NY: ROCHESTER,01/09/2017 21:32:00,,3517.00,2082.00,552.00,238.00,152.00,191.00,73.00,45.00,APPROVED
NY: ROCHESTER,01/09/2017 22:32:00,,3535.00,2082.00,547.00,235.00,152.00,186.00,71.00,43.00,APPROVED
NY: ROCHESTER,01/09/2017 23:32:00,,3532.00,2078.00,553.00,240.00,153.00,190.00,72.00,44.00,APPROVED
NY: ROCHESTER,01/10/2017 00:33:00,,3534.00,2088.00,551.00,241.00,155.00,191.00,72.00,44.00,APPROVED
NY: ROCHESTER,01/10/2017 01:33:00,,3566.00,2105.00,556.00,241.00,151.00,190.00,75.00,45.00,APPROVED
NY: ROCHESTER,01/10/2017 02:33:00,,3575.00,2110.00,548.00,240.00,155.00,194.00,73.00,44.00,APPROVED
NY: ROCHESTER,01/10/2017 03:33:00,,3574.00,2104.00,557.00,241.00,152.00,194.00,75.00,44.00,APPROVED
NY: ROCHESTER,01/10/2017 04:33:00,,3569.00,2108.00,553.00,241.00,157.00,194.00,75.00,46.00,APPROVED
NY: ROCHESTER,01/10/2017 05:34:00,,3610.00,2131.00,559.00,247.00,155.00,192.00,77.00,45.00,APPROVED
NY: ROCHESTER,01/10/2017 06:34:00,,3600.00,2141.00,568.00,245.00,158.00,195.00,78.00,45.00,APPROVED
NY: ROCHESTER,01/10/2017 07:34:00,,3631.00,2145.00,566.00,247.00,158.00,197.00,77.00,45.00,APPROVED
NY: ROCHESTER,01/10/2017 08:34:00,,3626.00,2150.00,570.00,246.00,153.00,197.00,77.00,43.00,APPROVED
NY: ROCHESTER,01/10/2017 09:35:00,,3615.00,2151.00,570.00,244.00,161.00,198.00,74.00,46.00,APPROVED
NY: ROCHESTER,01/10/2017 10:35:00,,3615.00,2145.00,570.00,246.00,158.00,199.00,74.00,45.00,APPROVED
NY: ROCHESTER,01/10/2017 11:35:00,,3612.00,2146.00,570.00,245.00,159.00,198.00,73.00,44.00,APPROVED
NY: ROCHESTER,01/10/2017 12:35:00,,3620.00,2132.00,569.00,247.00,157.00,201.00,74.00,45.00,APPROVED
NY: ROCHESTER,01/10/2017 13:35:00,,3598.00,2128.00,567.00,247.00,158.00,198.00,73.00,45.00,APPROVED
NY: ROCHESTER,01/10/2017 14:36:00,,3674.00,2203.00,587.00,255.00,163.00,207.00,75.00,46.00,APPROVED
NY: ROCHESTER,01/10/2017 15:36:00,,3683.00,2221.00,588.00,259.00,161.00,209.00,79.00,46.00,APPROVED
NY: ROCHESTER,01/10/2017 16:36:00,,3599.00,2138.00,571.00,248.00,159.00,201.00,76.00,46.00,APPROVED
NY: ROCHESTER,01/10/2017 17:36:00,,3649.00,2175.00,574.00,251.00,159.00,202.00,71.00,45.00,APPROVED
NY: ROCHESTER,01/10/2017 18:37:00,,3792.00,2287.00,622.00,265.00,165.00,219.00,77.00,48.00,APPROVED
NY: ROCHESTER,01/10/2017 19:37:00,,3813.00,2322.00,632.00,272.00,169.00,220.00,78.00,47.00,APPROVED
NY: ROCHESTER,01/10/2017 20:37:00,,3674.00,2189.00,595.00,253.00,162.00,207.00,75.00,46.00,APPROVED
NY: ROCHESTER,01/10/2017 21:37:00,,3604.00,2136.00,571.00,245.00,158.00,203.00,69.00,45.00,APPROVED
NY: ROCHESTER,01/10/2017 22:38:00,,3625.00,2160.00,579.00,251.00,156.00,201.00,70.00,45.00,APPROVED
NY: ROCHESTER,01/10/2017 23:38:00,,3596.00,2135.00,570.00,245.00,156.00,199.00,66.00,46.00,APPROVED
NY: ROCHESTER,01/11/2017 00:38:00,,3609.00,2126.00,567.00,243.00,157.00,202.00,69.00,45.00,APPROVED
NY: ROCHESTER,01/11/2017 01:38:00,,3665.00,2186.00,579.00,250.00,160.00,203.00,71.00,46.00,APPROVED
NY: ROCHESTER,01/11/2017 02:38:00,,3663.00,2166.00,582.00,247.00,162.00,203.00,68.00,45.00,APPROVED
NY: ROCHESTER,01/11/2017 03:39:00,,3594.00,2103.00,567.00,235.00,153.00,199.00,66.00,44.00,APPROVED
NY: ROCHESTER,01/11/2017 04:39:00,,3563.00,2079.00,557.00,238.00,151.00,195.00,64.00,44.00,APPROVED